Weather in Konye-Urgench

Turkmenistan     42°19′32″N   59°09′07″E
temp.,
°C
wind,
m/s
gust,
m/s
humid.,
%
clouds,
%
prec.,
mm/h
press.,
hPa
HPBL,
m
12 august, fri
fri1223:00+24nne511320 0.0 1014226
02:00+23ne49390 0.0 1014172
05:00+22ne46380 0.0 1014110
08:00+26ne46290 0.0 1015212
11:00+32ene68210 0.0 10152378
14:00+35ne67160 0.0 10132781
17:00+35ne77160 0.0 10122961
20:00+30nne812240 0.0 1012399
13 august, sat
sat1323:00+26nne613340 0.0 1013341
02:00+24nne411410 0.0 1013239
05:00+23nne48420 0.0 1013140
08:00+27ne46340 0.0 1013220
11:00+34ene68180 0.0 10132691
14:00+36ne67150 0.0 10113004
17:00+37ne77150 0.0 10103138
20:00+32nne913240 0.0 1010518
14 august, sun
sun1423:00+27nne614320 0.0 1010305
02:00+26ne412350 0.0 1010241
05:00+25ne48360 0.0 1010133
08:00+29ne34290 0.0 1010185
11:00+36nne45180 0.0 10103258
14:00+38ne66140 0.0 10083498
17:00+36nne108140 0.0 10082845
20:00+30n711190 0.0 1008303
15 august, mon
mon1523:00+25n612350 0.0 1009268
02:00+23n59470 0.0 1008170
05:00+24nne49370 0.0 1008144
08:00+28nne59220 0.0 1009264
11:00+35ne78150 0.0 10092166
14:00+38ne67130 0.0 10082887
17:00+38ne88120 0.0 10073183
20:00+31nne914250 0.0 1009515
16 august, tue
tue1623:00+27nne715390 0.0 1010414
02:00+27ne715320 0.0 1010440
05:00+25nne513310 0.0 1011265
08:00+27ne610250 0.0 1013368
11:00+34ne811140 0.0 10131399
14:00+37nne1014130 0.0 10122581
17:00+35nne1114140 0.0 10121720
20:00+29nne813270 0.0 1013462